2023/09/11 00:00:00, 9.1,21.5
2023/09/11 00:10:00, 9.1,21.5
2023/09/11 00:20:00, 8.6,21.3
2023/09/11 00:30:00, 8.4,21.2
2023/09/11 00:40:00, 8.3,21.2
2023/09/11 00:50:00, 8.2,21.0
2023/09/11 01:00:00, 8.2,20.9
2023/09/11 01:10:00, 8.7,21.0
2023/09/11 01:20:00, 9.0,20.9
2023/09/11 01:30:00, 3.3,20.9
2023/09/11 01:40:00, 0.3,21.2
2023/09/11 01:50:00, 0.3,21.1
2023/09/11 02:00:00, 0.5,21.1
2023/09/11 02:10:00, 8.7,20.9
2023/09/11 02:20:00, 8.5,21.1
2023/09/11 02:30:00, 7.3,20.6
2023/09/11 02:40:00, 6.2,21.1
2023/09/11 02:50:00, 6.4,20.9
2023/09/11 03:00:00, 7.0,20.9
2023/09/11 03:10:00, 7.5,21.0
2023/09/11 03:20:00, 7.4,20.9
2023/09/11 03:30:00, 6.8,20.8
2023/09/11 03:40:00, 6.3,20.8
2023/09/11 03:50:00, 6.2,20.7
2023/09/11 04:00:00, 6.7,20.7
2023/09/11 04:10:00, 7.5,20.8
2023/09/11 04:20:00, 7.5,20.7
2023/09/11 04:30:00, 7.0,20.8
2023/09/11 04:40:00, 6.3,20.7
2023/09/11 04:50:00, 6.3,20.8
2023/09/11 05:00:00, 6.6,20.8
2023/09/11 05:10:00, 7.1,20.8
2023/09/11 05:20:00, 7.1,20.8
2023/09/11 05:30:00, 6.6,20.6
2023/09/11 05:40:00, 6.3,20.8
2023/09/11 05:50:00, 6.3,20.5
2023/09/11 06:00:00, 6.0,20.6
2023/09/11 06:10:00, 6.4,20.7
2023/09/11 06:20:00, 6.0,20.6
2023/09/11 06:30:00, 5.2,20.8
2023/09/11 06:40:00, 5.3,20.5
2023/09/11 06:50:00, 5.1,20.6
2023/09/11 07:00:00, 5.4,20.5
2023/09/11 07:10:00, 6.5,20.5
2023/09/11 07:20:00, 7.3,20.7
2023/09/11 07:30:00, 6.3,21.1
2023/09/11 07:40:00, 6.1,21.8
2023/09/11 07:50:00, 6.7,24.0
2023/09/11 08:00:00, 7.1,26.6
2023/09/11 08:10:00, 6.8,26.4
2023/09/11 08:20:00, 6.3,24.2
2023/09/11 08:30:00, 5.0,22.6
2023/09/11 08:40:00, 4.9,22.3
2023/09/11 08:50:00, 5.3,22.4
2023/09/11 09:00:00, 5.7,22.5
2023/09/11 09:10:00, 6.0,22.7
2023/09/11 09:20:00, 5.7,23.2
2023/09/11 09:30:00, 5.6,22.8
2023/09/11 09:40:00, 5.9,22.9
2023/09/11 09:50:00, 6.0,22.9
2023/09/11 10:00:00, 5.5,23.0
2023/09/11 10:10:00, 5.5,23.0
2023/09/11 10:20:00, 6.0,23.4
2023/09/11 10:30:00, 6.3,23.6
2023/09/11 10:40:00, 6.5,24.0
2023/09/11 10:50:00, 6.3,24.0
2023/09/11 11:00:00, 5.8,23.9
2023/09/11 11:10:00, 6.3,24.1
2023/09/11 11:20:00, 6.8,24.2
2023/09/11 11:30:00, 6.8,24.9
2023/09/11 11:40:00, 6.8,26.3
2023/09/11 11:50:00, 6.5,25.8
2023/09/11 12:00:00, 7.0,26.9
2023/09/11 12:10:00, 7.1,28.1
2023/09/11 12:20:00, 7.0,28.7
2023/09/11 12:30:00, 7.1,28.8
2023/09/11 12:40:00, 7.3,28.9
2023/09/11 12:50:00, 7.3,29.7
2023/09/11 13:00:00, 7.0,30.0
2023/09/11 13:10:00, 6.8,31.4
2023/09/11 13:20:00, 7.0,29.5
2023/09/11 13:30:00, 6.4,28.5
2023/09/11 13:40:00, 5.6,28.6
2023/09/11 13:50:00, 5.6,28.2
2023/09/11 14:00:00, 5.5,27.5
2023/09/11 14:10:00, 5.5,27.3
2023/09/11 14:20:00, 5.4,27.2
2023/09/11 14:30:00, 5.5,27.2
2023/09/11 14:40:00, 5.6,27.4
2023/09/11 14:50:00, 5.6,27.6
2023/09/11 15:00:00, 5.5,28.7
2023/09/11 15:10:00, 5.3,29.1
2023/09/11 15:20:00, 5.3,28.0
2023/09/11 15:30:00, 5.4,27.6
2023/09/11 15:40:00, 5.7,26.9
2023/09/11 15:50:00, 5.9,26.2
2023/09/11 16:00:00, 6.0,25.3
2023/09/11 16:10:00, 6.3,24.3
2023/09/11 16:20:00, 6.4,24.3
2023/09/11 16:30:00, 4.9,23.9
2023/09/11 16:40:00, 4.7,23.6
2023/09/11 16:50:00, 4.9,23.4
2023/09/11 17:00:00, 4.7,23.3
2023/09/11 17:10:00, 4.6,23.3
2023/09/11 17:20:00, 4.6,23.0
2023/09/11 17:30:00, 4.5,22.7
2023/09/11 17:40:00, 2.1,21.8
2023/09/11 17:50:00, 0.7,21.5
2023/09/11 18:00:00, 0.6,21.2
2023/09/11 18:10:00, 0.5,21.4
2023/09/11 18:20:00, 0.5,21.1
2023/09/11 18:30:00, 0.5,20.8
2023/09/11 18:40:00, 0.5,21.4
2023/09/11 18:50:00, 0.4,20.9
2023/09/11 19:00:00, 0.3,20.7
2023/09/11 19:10:00, 0.3,20.8
2023/09/11 19:20:00, 0.4,20.9
2023/09/11 19:30:00, 0.4,20.9
2023/09/11 19:40:00, 0.4,20.9
2023/09/11 19:50:00, 0.4,20.9
2023/09/11 20:00:00, 0.3,20.9
2023/09/11 20:10:00, 0.3,20.8
2023/09/11 20:20:00, 0.2,20.8
2023/09/11 20:30:00, 0.4,20.5
2023/09/11 20:40:00, 0.5,20.7
2023/09/11 20:50:00, 0.3,20.7
2023/09/11 21:00:00, 0.3,20.8
2023/09/11 21:10:00, 0.4,20.6
2023/09/11 21:20:00, 0.4,20.6
2023/09/11 21:30:00, 0.3,20.5
2023/09/11 21:40:00, 0.4,20.4
2023/09/11 21:50:00, 0.4,20.3
2023/09/11 22:00:00, 0.4,20.4
2023/09/11 22:10:00, 0.3,20.4
2023/09/11 22:20:00, 0.2,20.3
2023/09/11 22:30:00, 0.3,20.2
2023/09/11 22:40:00, 0.2,20.2
2023/09/11 22:50:00, 0.2,20.2
2023/09/11 23:00:00, 0.2,20.0
2023/09/11 23:10:00, 0.2,20.0
2023/09/11 23:20:00, 0.4,20.0
2023/09/11 23:30:00, 0.4,19.8
2023/09/11 23:40:00, 0.4,19.8
2023/09/11 23:50:00, 0.4,19.7
